Luqa, Malta

6:01 PM CEST on April 24, 2017 (GMT +0200)
Luqa

Weather History for LMML - March, 2013

Change the Weather History Date:

Monday, March 18, 2013

  Actual Average Record
Temperature  
Mean Temperature 60 °F -  
Max Temperature 66 °F 64 °F 74 °F (2014)
Min Temperature 55 °F 52 °F 46 °F (1999)
Degree Days  
Heating Degree Days 4    
Growing Degree Days 10 (Base 50)    
Moisture  
Dew Point 53 °F    
Average Humidity 78    
Maximum Humidity 94    
Minimum Humidity 59    
Precipitation  
Precipitation 0.00 in 0.04 in - ()
Sea Level Pressure  
Sea Level Pressure 29.80 in    
Wind  
Wind Speed 13 mph ()    
Max Wind Speed 20 mph    
Max Gust Speed 32 mph    
Visibility 5.0 miles    
Events      
Averages and records for this station are not official NWS values.
T = Trace of Precipitation, MM = Missing Value Source: Averaged Metar Reports

Daily Weather History Graph

Daily Weather History Graph

Search for Another Location

Airport or City:

Trip Planner

Search our weather history database for the weather conditions in past years. The results will help you decide how hot, cold, wet, or windy it might be!

Date:

Astronomy

Mar. 18, 2013 Rise Set
Actual Time 6:08 AM CET 6:12 PM CET
Civil Twilight 5:43 AM CET 6:37 PM CET
Nautical Twilight 5:13 AM CET 7:07 PM CET
Astronomical Twilight 4:43 AM CET 7:37 PM CET
Moon 10:05 AM CET (3/18) No Moon Set
Length of Visible Light 12h 54m
Length of Day
12h 03m
Waxing Crescent, 38% of the Moon is Illuminated
Mar 18
Waxing Crescent
Mar 19
First Quarter
Mar 27
Full
Apr 3
Last Quarter
Apr 10
New

Hourly Weather History & Observations

Time (CET) Temp. Dew Point Humidity Pressure Visibility Wind Dir Wind Speed Gust Speed Precip Events Conditions
12:15 AM 57.2 °F 53.6 °F 88% 29.95 in - SSE 13.8 mph - N/A   Clear
12:45 AM 57.2 °F 53.6 °F 88% 29.95 in - SSE 13.8 mph - N/A   Clear
1:00 AM 57 °F 54 °F 86% 29.94 in 6 mi SSE 12.7 mph - -  
1:15 AM 57.2 °F 53.6 °F 88% 29.92 in - SSE 15.0 mph - N/A   Clear
1:45 AM 57.2 °F 53.6 °F 88% 29.92 in - South 16.1 mph - N/A   Clear
2:15 AM 57.2 °F 53.6 °F 88% 29.92 in - South 17.3 mph - N/A   Clear
2:45 AM 57.2 °F 53.6 °F 88% 29.89 in - South 18.4 mph - N/A   Clear
3:15 AM 57.2 °F 53.6 °F 88% 29.89 in - South 19.6 mph - N/A   Clear
3:45 AM 57.2 °F 53.6 °F 88% 29.89 in - South 17.3 mph - N/A   Clear
4:00 AM 58 °F 53 °F 79% 29.88 in 6 mi South 16.1 mph - -   Mostly Cloudy
4:15 AM 57.2 °F 53.6 °F 88% 29.86 in - South 17.3 mph - N/A   Clear
4:45 AM 57.2 °F 53.6 °F 88% 29.86 in - South 17.3 mph - N/A   Clear
5:15 AM 57.2 °F 53.6 °F 88% 29.86 in 5.0 mi South 17.3 mph - N/A   Unknown
5:45 AM 57.2 °F 53.6 °F 88% 29.86 in 5.0 mi South 17.3 mph - N/A   Unknown
6:15 AM 57.2 °F 53.6 °F 88% 29.86 in 5.0 mi South 16.1 mph - N/A   Unknown
6:45 AM 57.2 °F 53.6 °F 88% 29.83 in 5.6 mi South 16.1 mph - N/A   Unknown
7:00 AM 58 °F 54 °F 83% 29.84 in 6 mi South 17.3 mph - -  
7:15 AM 59.0 °F 53.6 °F 82% 29.83 in - South 16.1 mph - N/A   Clear
7:45 AM 59.0 °F 55.4 °F 88% 29.83 in - South 17.3 mph - N/A   Clear
8:15 AM 60.8 °F 55.4 °F 82% 29.83 in - South 17.3 mph - N/A   Clear
8:45 AM 60.8 °F 55.4 °F 82% 29.83 in - South 17.3 mph - N/A   Clear
9:15 AM 62.6 °F 55.4 °F 77% 29.80 in - South 19.6 mph - N/A   Clear
9:45 AM 62.6 °F 55.4 °F 77% 29.80 in - South 17.3 mph - N/A   Clear
10:00 AM 64 °F 55 °F 65% 29.81 in 6 mi South 19.6 mph - -   Partly Cloudy
10:15 AM 62.6 °F 55.4 °F 77% 29.80 in - South 19.6 mph 31.1 mph N/A   Clear
10:45 AM 64.4 °F 55.4 °F 73% 29.80 in - South 19.6 mph 32.2 mph N/A   Clear
11:15 AM 64.4 °F 53.6 °F 68% 29.77 in - South 18.4 mph 29.9 mph N/A   Clear
11:45 AM 64.4 °F 53.6 °F 68% 29.77 in - South 19.6 mph 31.1 mph N/A   Clear
12:15 PM 66.2 °F 53.6 °F 64% 29.77 in - South 18.4 mph - N/A   Clear
12:45 PM 64.4 °F 53.6 °F 68% 29.74 in - South 19.6 mph 31.1 mph N/A   Clear
1:00 PM 64 °F 53 °F 59% 29.75 in 6 mi South 19.6 mph - -  
1:15 PM 66.2 °F 53.6 °F 64% 29.74 in - South 13.8 mph - N/A   Clear
1:45 PM 66.2 °F 53.6 °F 64% 29.71 in 6.2 mi South 13.8 mph 25.3 mph N/A   Partly Cloudy
2:15 PM 64.4 °F 53.6 °F 68% 29.71 in - South 16.1 mph - N/A   Clear
2:45 PM 64.4 °F 53.6 °F 68% 29.71 in - South 15.0 mph - N/A   Clear
3:15 PM 64.4 °F 53.6 °F 68% 29.71 in - South 12.7 mph - N/A   Clear
3:45 PM 64.4 °F 53.6 °F 68% 29.71 in - South 8.1 mph - N/A   Clear
4:15 PM 64.4 °F 51.8 °F 64% 29.71 in 5.6 mi South 6.9 mph - N/A   Unknown
4:45 PM 64.4 °F 51.8 °F 64% 29.71 in 5.0 mi SSW 4.6 mph - N/A   Unknown
5:15 PM 64.4 °F 51.8 °F 64% 29.71 in 4.3 mi SW 3.5 mph - N/A   Unknown
5:45 PM 62.6 °F 50.0 °F 63% 29.71 in 3.7 mi WSW 3.5 mph - N/A   Haze
6:15 PM 60.8 °F 50.0 °F 68% 29.71 in 3.7 mi West 4.6 mph - N/A   Unknown
6:45 PM 59.0 °F 50.0 °F 72% 29.74 in 5.0 mi NW 3.5 mph - N/A   Unknown
7:00 PM 59 °F 49 °F 60% 29.75 in 5 mi North 3.5 mph - -  
7:15 PM 59.0 °F 51.8 °F 77% 29.74 in 5.0 mi NE 3.5 mph - N/A   Unknown
7:45 PM 59.0 °F 51.8 °F 77% 29.77 in 4.3 mi North 3.5 mph - N/A   Haze
8:15 PM 57.2 °F 50.0 °F 77% 29.77 in 4.3 mi NNW 4.6 mph - N/A   Unknown
8:45 PM 55.4 °F 50.0 °F 82% 29.77 in 5.6 mi North 5.8 mph - N/A   Unknown
9:15 PM 55.4 °F 50.0 °F 82% 29.77 in 4.3 mi North 6.9 mph - N/A   Unknown
9:45 PM 55.4 °F 51.8 °F 88% 29.80 in 5.6 mi North 6.9 mph - N/A   Unknown
10:00 PM 56 °F 52 °F 81% 29.81 in 5 mi North 6.9 mph - -   Widespread Dust
10:15 PM 55.4 °F 51.8 °F 88% 29.80 in 4.3 mi North 6.9 mph - N/A   Haze
10:45 PM 55.4 °F 53.6 °F 94% 29.80 in 3.1 mi NNE 5.8 mph - N/A   Haze
11:15 PM 55.4 °F 53.6 °F 94% 29.80 in 3.1 mi NNE 8.1 mph - N/A   Haze
11:45 PM 55.4 °F 53.6 °F 94% 29.80 in - NNE 4.6 mph - N/A   Haze